This demonstration page uses our WeatherBlox Daily Observations layout. Learn more.

Left ArrowRight Arrow

39.51506, -84.39828

Hourly Observations for September 6, 2015

Temp ( °F °C ) Dew Point ( °F °C ) Humidity (%) Winds ( mph kmh ) Pressure ( in mb ) Visibility ( mi km ) Precip ( " mm )
12:15 am 00:15 Clear 70 21 65 18.5 86 86 Calm 30.12 1020 10 16.0934 0 0
12:35 am 00:35 Clear 69 20.8 65 18.5 87 87 Calm 30.12 1020 10 16.0934 0 0
12:55 am 00:55 Clear 69 20.8 65 18.6 87 87 Calm 30.12 1020 7 11.26538 0 0
1:15 am 01:15 Clear 69 20.8 66 18.7 88 88 Calm 30.12 1020 7 11.26538 0 0
1:35 am 01:35 Clear with Mist and Fog 69 20.8 66 18.9 89 89 Calm 30.09 1019 5 8.0467 0 0
1:55 am 01:55 Clear with Mist and Fog 69 20.8 66 18.9 89 89 Calm 30.09 1019 5 8.0467 0 0
2:15 am 02:15 Clear with Mist and Fog 69 20.8 66 19 90 90 Calm 30.09 1019 5 8.0467 0 0
2:35 am 02:35 Clear with Mist and Fog 69 20.8 66 19 90 90 Calm 30.09 1019 4 6.43736 0 0
2:55 am 02:55 Clear with Mist and Fog 69 20.8 66 19 90 90 Calm 30.09 1019 3 4.82802 0 0
3:15 am 03:15 Mostly Cloudy with Fog 69 20.8 66 19 90 90 Calm 30.09 1019 0.5 0.80467 0 0
3:35 am 03:35 Clear with Mist and Fog 69 20.8 66 19.1 90 90 Calm 30.09 1019 4 6.43736 0 0
3:55 am 03:55 Clear with Mist and Fog 69 20.8 66 19.1 90 90 Calm 30.09 1019 4 6.43736 0 0
4:15 am 04:15 Clear with Mist and Fog 69 20.8 66 19.1 90 90 Calm 30.09 1019 4 6.43736 0 0
4:35 am 04:35 Clear with Mist and Fog 69 20.8 66 19.1 90 90 Calm 30.09 1019 5 8.0467 0 0
4:55 am 04:55 Clear with Mist and Fog 67 19.7 64 17.9 89 89 Calm 30.09 1019 3 4.82802 0 0
5:15 am 05:15 Clear with Mist and Fog 67 19.6 64 17.9 90 90 Calm 30.12 1020 4 6.43736 0 0
5:35 am 05:35 Clear with Mist and Fog 67 19.5 64 17.7 89 89 Calm 30.12 1020 3 4.82802 0 0
5:55 am 05:55 Clear with Mist and Fog 67 19.5 64 17.8 90 90 Calm 30.12 1020 3 4.82802 0 0
6:15 am 06:15 Clear with Mist and Fog 69 20.8 67 19.3 91 91 Calm 30.12 1020 4 6.43736 0 0
6:35 am 06:35 Clear with Mist and Fog 69 20.8 66 19.1 90 90 Calm 30.12 1020 4 6.43736 0 0
6:55 am 06:55 Clear with Mist and Fog 69 20.8 66 19.1 90 90 Calm 30.12 1020 4 6.43736 0 0
7:15 am 07:15 Mostly Cloudy with Mist and Fog 67 19.5 64 17.7 89 89 Calm 30.12 1020 1.5 2.41401 0 0
7:35 am 07:35 Mostly Cloudy with Mist and Fog 67 19.5 64 17.7 89 89 Calm 30.12 1020 1.5 2.41401 0 0
7:55 am 07:55 Sunny with Mist and Fog 69 20.5 66 19 91 91 Calm 30.12 1020 2.5 4.02335 0 0
8:15 am 08:15 Sunny with Mist and Fog 69 20.8 67 19.3 91 91 Calm 30.12 1020 3 4.82802 0 0
8:35 am 08:35 Sunny with Mist and Fog 69 20.8 67 19.2 91 91 Calm 30.12 1020 5 8.0467 0 0
8:55 am 08:55 Sunny with Mist and Fog 69 20.8 66 19 90 90 Calm 30.12 1020 5 8.0467 0 0
9:15 am 09:15 Sunny 74 23.6 70 21.2 86 86 Calm 30.12 1020 7 11.26538 0 0
9:35 am 09:35 Sunny 74 23.6 69 20.7 84 84 Calm 30.12 1020 7 11.26538 0 0
9:55 am 09:55 Sunny 77 24.9 71 21.4 81 81 Calm 30.12 1020 7 11.26538 0 0
10:15 am 10:15 Sunny 77 25.1 70 20.9 78 78 Calm 30.12 1020 10 16.0934 0 0
10:35 am 10:35 Sunny 80 26.5 70 21.3 73 73 Calm 30.12 1020 10 16.0934 0 0
10:55 am 10:55 Sunny 80 26.7 70 21.2 72 72 Calm 30.15 1021 10 16.0934 0 0
11:15 am 11:15 Sunny 81 27.2 69 20.8 68 68 Calm 30.12 1020 10 16.0934 0 0
11:35 am 11:35 Sunny 82 28 70 21.1 66 66 Calm 30.15 1021 10 16.0934 0 0
11:55 am 11:55 Sunny 83 28.5 70 20.9 63 63 SW 3 6 30.12 1020 10 16.0934 0 0
12:15 pm 12:15 Sunny 86 29.9 70 21.3 60 60 SW 5 7 30.09 1019 10 16.0934 0 0
12:35 pm 12:35 Sunny 87 30.7 69 20.7 55 55 SW 5 7 30.12 1020 10 16.0934 0 0
12:55 pm 12:55 Sunny 90 32.1 71 21.5 53 53 WSW 3 6 30.09 1019 10 16.0934 0 0
1:15 pm 13:15 Sunny 90 32.1 69 20.8 51 51 SSW 5 7 30.09 1019 10 16.0934 0 0
1:35 pm 13:35 Sunny 90 32.1 70 20.9 52 52 SW 3 6 30.09 1019 10 16.0934 0 0
1:55 pm 13:55 Sunny 90 32.1 67 19.6 48 48 SSE 3 6 30.09 1019 10 16.0934 0 0
2:15 pm 14:15 Sunny 90 32.1 64 17.7 42 42 SW 3 6 30.09 1019 10 16.0934 0 0
2:35 pm 14:35 Sunny 90 32.1 62 16.6 39 39 Calm 30.09 1019 10 16.0934 0 0
2:55 pm 14:55 Partly Cloudy 90 32.1 65 18.1 43 43 SW 5 7 30.06 1018 10 16.0934 0 0
3:15 pm 15:15 Partly Cloudy 91 32.5 63 17.4 40 40 N 3 6 30.06 1018 10 16.0934 0 0
3:35 pm 15:35 Sunny 91 32.8 63 17 39 39 Calm 30.06 1018 10 16.0934 0 0
3:55 pm 15:55 Sunny 91 32.8 64 18 41 41 NW 5 7 30.06 1018 10 16.0934 0 0
4:15 pm 16:15 Sunny 90 32.1 64 18 43 43 Calm 30.06 1018 10 16.0934 0 0
4:35 pm 16:35 Sunny 91 32.6 62 16.7 38 38 Calm 30.03 1017 10 16.0934 0 0
4:55 pm 16:55 Sunny 91 32.6 62 16.4 38 38 Calm 30.03 1017 10 16.0934 0 0
5:15 pm 17:15 Sunny 91 32.7 64 17.5 40 40 WNW 5 7 30.03 1017 10 16.0934 0 0
5:35 pm 17:35 Sunny 90 32.3 61 16.2 38 38 SSW 3 6 30.03 1017 10 16.0934 0 0
5:55 pm 17:55 Sunny 90 32.1 61 15.9 38 38 Calm 30.03 1017 10 16.0934 0 0
6:15 pm 18:15 Sunny 90 32.1 62 16.8 40 40 Calm 30.03 1017 10 16.0934 0 0
6:35 pm 18:35 Sunny 90 32.1 63 17 40 40 Calm 30.03 1017 10 16.0934 0 0
6:55 pm 18:55 Sunny 90 32.1 67 19.7 48 48 Calm 30.03 1017 10 16.0934 0 0
7:15 pm 19:15 Sunny 89 31.9 76 24.4 65 65 Calm 30.03 1017 10 16.0934 0 0
7:35 pm 19:35 Sunny 82 28 70 21.3 67 67 Calm 30.06 1018 10 16.0934 0 0
7:55 pm 19:55 Sunny 80 26.5 70 21 72 72 Calm 30.03 1017 10 16.0934 0 0
8:15 pm 20:15 Clear 77 25.1 71 21.9 82 82 Calm 30.03 1017 10 16.0934 0 0
8:35 pm 20:35 Clear 77 25.1 72 22.2 84 84 Calm 30.03 1017 10 16.0934 0 0
8:55 pm 20:55 Clear 74 23.6 69 20.6 83 83 Calm 30.06 1018 10 16.0934 0 0
9:15 pm 21:15 Clear 74 23.6 69 20.7 84 84 Calm 30.06 1018 10 16.0934 0 0
9:35 pm 21:35 Clear 74 23.6 69 20.8 84 84 Calm 30.06 1018 10 16.0934 0 0
9:55 pm 21:55 Clear 74 23.6 69 20.8 84 84 Calm 30.06 1018 10 16.0934 0 0
10:15 pm 22:15 Clear 74 23.6 70 21 85 85 Calm 30.06 1018 10 16.0934 0 0
10:35 pm 22:35 Clear 74 23.6 70 21.1 86 86 Calm 30.06 1018 7 11.26538 0 0
10:55 pm 22:55 Clear 74 23.6 70 21.2 86 86 Calm 30.06 1018 7 11.26538 0 0
11:15 pm 23:15 Clear 73 22.7 69 20.4 87 87 Calm 30.06 1018 7 11.26538 0 0
11:35 pm 23:35 Clear 72 22.3 68 20 87 87 Calm 30.06 1018 7 11.26538 0 0
11:55 pm 23:55 Clear 72 22.3 68 20 87 87 Calm 30.06 1018 7 11.26538 0 0

Powered by AerisWeather